International Skating Union - Official Site

Essent ISU World Cup Calgary
November 8-10, 2013

Draw | Lap Times | Index | World Cup

Referee: Dan  IMMERFALL  (USA)
Starter: Hans  TERSTAPPEN  (CAN)
StartTime: EndTime: Air Temp: Ice Temp: Humidity:
13:31 14:28 17 ℃ -6.8 ℃ 32
Result Team Pursuit Men
Rankings as of Nov 10 2013 7:25PM
Rank: No.: Team: Nation: Time: Behind: Points:
Total 14
1 1 Netherlands (105) Koen Verweij (90) Jan Blokhuijsen (97) Sven Kramer NED NED 3:37.170.5 - 17.65 - (17.6)
1.0 - 30.76 - (13.1)
1.5 - 43.94 - (13.1)
2.0 - 57.18 - (13.2)
2.5 - 1:10.44 - (13.2)
3.0 - 1:23.79 - (13.3)
3.5 - 1:36.94 - (13.1)
4.0 - 1:50.13 - (13.1)
4.5 - 2:03.60 - (13.4)
5.0 - 2:16.85 - (13.2)
5.5 - 2:29.94 - (13.0)
6.0 - 2:43.29 - (13.3)
6.5 - 2:56.71 - (13.4)
7.0 - 3:10.27 - (13.5)
7.5 - 3:23.87 - (13.5)
8.0 - 3:37.17 - (13.2)
100
2 11 USA (149) Brian Hansen (150) Jonathan Kuck (153) Trevor Marsicano USA USA 3:38.660.5 - 17.83 - (17.8)
1.0 - 30.55 - (12.7)
1.5 - 43.21 - (12.6)
2.0 - 55.91 - (12.6)
2.5 - 1:08.79 - (12.8)
3.0 - 1:21.95 - (13.1)
3.5 - 1:35.02 - (13.0)
4.0 - 1:48.18 - (13.1)
4.5 - 2:01.76 - (13.5)
5.0 - 2:15.41 - (13.6)
5.5 - 2:29.20 - (13.7)
6.0 - 2:43.18 - (13.9)
6.5 - 2:57.08 - (13.9)
7.0 - 3:11.08 - (14.0)
7.5 - 3:24.87 - (13.7)
8.0 - 3:38.66 - (13.7)
1.49 80
3 2 Korea (86) Seung-Hoon Lee (78) Hyong-Jun Joo (79) Cheol-Min Kim KOR KOR 3:40.530.5 - 18.22 - (18.2)
1.0 - 31.66 - (13.4)
1.5 - 44.84 - (13.1)
2.0 - 57.71 - (12.8)
2.5 - 1:10.69 - (12.9)
3.0 - 1:23.82 - (13.1)
3.5 - 1:37.26 - (13.4)
4.0 - 1:50.68 - (13.4)
4.5 - 2:04.21 - (13.5)
5.0 - 2:17.85 - (13.6)
5.5 - 2:31.76 - (13.9)
6.0 - 2:45.74 - (13.9)
6.5 - 2:59.71 - (13.9)
7.0 - 3:13.12 - (13.4)
7.5 - 3:26.74 - (13.6)
8.0 - 3:40.53 - (13.7)
3.36 70
4 6 Canada (22) Denny Morrison (21) Lucas Makowsky (16) Mathieu Giroux CAN CAN 3:41.390.5 - 17.68 - (17.6)
1.0 - 30.75 - (13.0)
1.5 - 43.84 - (13.0)
2.0 - 57.03 - (13.1)
2.5 - 1:10.47 - (13.4)
3.0 - 1:23.85 - (13.3)
3.5 - 1:37.30 - (13.4)
4.0 - 1:50.88 - (13.5)
4.5 - 2:04.76 - (13.8)
5.0 - 2:18.27 - (13.5)
5.5 - 2:31.78 - (13.5)
6.0 - 2:45.28 - (13.5)
6.5 - 2:59.25 - (13.9)
7.0 - 3:13.22 - (13.9)
7.5 - 3:27.23 - (14.0)
8.0 - 3:41.39 - (14.1)
4.22 60
5 5 Poland (117) Zbigniew Brodka (120) Konrad Niedzwiedzki (123) Jan Szymanski POL POL 3:41.720.5 - 17.92 - (17.9)
1.0 - 31.40 - (13.4)
1.5 - 44.89 - (13.4)
2.0 - 58.29 - (13.3)
2.5 - 1:11.73 - (13.4)
3.0 - 1:25.29 - (13.5)
3.5 - 1:38.65 - (13.3)
4.0 - 1:52.09 - (13.4)
4.5 - 2:05.84 - (13.7)
5.0 - 2:19.40 - (13.5)
5.5 - 2:33.11 - (13.7)
6.0 - 2:46.96 - (13.8)
6.5 - 3:00.62 - (13.6)
7.0 - 3:14.25 - (13.6)
7.5 - 3:28.16 - (13.9)
8.0 - 3:41.69 - (13.5)
4.55 50
6 4 Norway (106) Håvard Bøkko (110) Sverre Lunde Pedersen (108) Håvard Holmefjord Lorentzen NOR NOR 3:41.880.5 - 17.54 - (17.5)
1.0 - 30.75 - (13.2)
1.5 - 43.93 - (13.1)
2.0 - 57.30 - (13.3)
2.5 - 1:10.57 - (13.2)
3.0 - 1:23.71 - (13.1)
3.5 - 1:36.98 - (13.2)
4.0 - 1:50.36 - (13.3)
4.5 - 2:03.93 - (13.5)
5.0 - 2:17.85 - (13.9)
5.5 - 2:32.07 - (14.2)
6.0 - 2:46.03 - (13.9)
6.5 - 3:00.08 - (14.0)
7.0 - 3:13.81 - (13.7)
7.5 - 3:27.77 - (13.9)
8.0 - 3:41.88 - (14.1)
4.71 45
7 3 Russia (137) Ivan Skobrev (139) Denis Yuskov (128) Sergey Gryaztsov RUS RUS 3:42.530.5 - 17.96 - (17.9)
1.0 - 31.24 - (13.2)
1.5 - 44.61 - (13.3)
2.0 - 57.86 - (13.2)
2.5 - 1:11.04 - (13.1)
3.0 - 1:24.15 - (13.1)
3.5 - 1:37.45 - (13.2)
4.0 - 1:50.95 - (13.5)
4.5 - 2:04.59 - (13.6)
5.0 - 2:17.97 - (13.3)
5.5 - 2:31.78 - (13.8)
6.0 - 2:45.56 - (13.7)
6.5 - 2:59.60 - (14.0)
7.0 - 3:13.55 - (13.9)
7.5 - 3:27.81 - (14.2)
8.0 - 3:42.53 - (14.7)
5.36 40
8 8 Italy (52) Matteo Anesi (56) Andrea Giovannini (58) Luca Stefani ITA ITA 3:43.370.5 - 17.23 - (17.2)
1.0 - 30.47 - (13.2)
1.5 - 43.64 - (13.1)
2.0 - 57.13 - (13.4)
2.5 - 1:10.57 - (13.4)
3.0 - 1:24.12 - (13.5)
3.5 - 1:37.50 - (13.3)
4.0 - 1:50.96 - (13.4)
4.5 - 2:04.67 - (13.7)
5.0 - 2:18.61 - (13.9)
5.5 - 2:32.60 - (13.9)
6.0 - 2:46.43 - (13.8)
6.5 - 3:00.35 - (13.9)
7.0 - 3:14.37 - (14.0)
7.5 - 3:28.68 - (14.3)
8.0 - 3:43.37 - (14.6)
6.20 35
9 9 France (42) Benjamin Macé (40) Alexis Contin (41) Ewen Fernandez FRA FRA 3:44.180.5 - 17.94 - (17.9)
1.0 - 30.97 - (13.0)
1.5 - 43.94 - (12.9)
2.0 - 56.90 - (12.9)
2.5 - 1:10.08 - (13.1)
3.0 - 1:23.28 - (13.2)
3.5 - 1:36.69 - (13.4)
4.0 - 1:50.00 - (13.3)
4.5 - 2:03.52 - (13.5)
5.0 - 2:17.28 - (13.7)
5.5 - 2:31.32 - (14.0)
6.0 - 2:45.68 - (14.3)
6.5 - 3:00.03 - (14.3)
7.0 - 3:14.46 - (14.4)
7.5 - 3:29.19 - (14.7)
8.0 - 3:44.18 - (15.0)
7.01 30
10 7 Germany (44) Patrick Beckert (43) Alexej Baumgärtner (49) Robert Lehmann GER GER 3:45.480.5 - 18.05 - (18.0)
1.0 - 31.40 - (13.3)
1.5 - 44.91 - (13.5)
2.0 - 58.28 - (13.3)
2.5 - 1:11.76 - (13.4)
3.0 - 1:25.47 - (13.7)
3.5 - 1:39.01 - (13.5)
4.0 - 1:52.41 - (13.3)
4.5 - 2:05.98 - (13.5)
5.0 - 2:19.43 - (13.4)
5.5 - 2:33.30 - (13.8)
6.0 - 2:47.67 - (14.3)
6.5 - 3:02.28 - (14.6)
7.0 - 3:16.88 - (14.5)
7.5 - 3:31.21 - (14.3)
8.0 - 3:45.48 - (14.2)
8.31 25
11 12 Japan (65) Shota Nakamura (69) Shane Williamson (61) Seitaro Ichinohe JPN JPN 3:47.460.5 - 18.25 - (18.2)
1.0 - 32.23 - (13.9)
1.5 - 45.90 - (13.6)
2.0 - 59.79 - (13.8)
2.5 - 1:13.60 - (13.8)
3.0 - 1:27.39 - (13.7)
3.5 - 1:41.30 - (13.9)
4.0 - 1:54.96 - (13.6)
4.5 - 2:09.00 - (14.0)
5.0 - 2:22.97 - (13.9)
5.5 - 2:37.05 - (14.0)
6.0 - 2:51.26 - (14.2)
6.5 - 3:05.18 - (13.9)
7.0 - 3:19.12 - (13.9)
7.5 - 3:33.36 - (14.2)
8.0 - 3:47.46 - (14.0)
10.29 21
12 10 Belgium (7) Bart Swings (6) Ferre Spruyt (8) Maarten Swings BEL BEL 3:48.430.5 - 18.52 - (18.5)
1.0 - 32.17 - (13.6)
1.5 - 45.76 - (13.5)
2.0 - 59.32 - (13.5)
2.5 - 1:12.95 - (13.6)
3.0 - 1:26.56 - (13.6)
3.5 - 1:40.43 - (13.8)
4.0 - 1:54.51 - (14.0)
4.5 - 2:08.82 - (14.3)
5.0 - 2:22.86 - (14.0)
5.5 - 2:37.06 - (14.1)
6.0 - 2:50.95 - (13.8)
6.5 - 3:04.95 - (14.0)
7.0 - 3:19.24 - (14.2)
7.5 - 3:33.73 - (14.4)
8.0 - 3:48.43 - (14.7)
11.26 18
13 15 Austria (5) Bram Smallenbroek (3) Armin Hager (4) Linus Heidegger AUT AUT 3:50.070.5 - 17.30 - (17.3)
1.0 - 31.85 - (14.5)
1.5 - 46.65 - (14.8)
2.0 - 58.93 - (12.2)
2.5 - 1:15.84 - (16.9)
3.0 - 1:29.90 - (14.0)
3.5 - 1:43.86 - (13.9)
4.0 - 1:57.99 - (14.1)
4.5 - 2:12.11 - (14.1)
5.0 - 2:26.34 - (14.2)
5.5 - 2:40.57 - (14.2)
6.0 - 2:54.47 - (13.9)
6.5 - 3:07.87 - (13.4)
7.0 - 3:21.60 - (13.7)
7.5 - 3:35.79 - (14.1)
8.0 - 3:50.07 - (14.2)
12.90 16
14 13 China (29) Longjiang Sun (30) Guojun Tian (27) Yiming Liu CHN CHN 3:52.820.5 - 17.71 - (17.7)
1.0 - 32.03 - (14.3)
1.5 - 46.59 - (14.5)
2.0 - 1:01.35 - (14.7)
2.5 - 1:15.63 - (14.2)
3.0 - 1:30.02 - (14.3)
3.5 - 1:44.35 - (14.3)
4.0 - 1:58.32 - (13.9)
4.5 - 2:12.36 - (14.0)
5.0 - 2:26.35 - (13.9)
5.5 - 2:40.78 - (14.4)
6.0 - 2:55.12 - (14.3)
6.5 - 3:09.00 - (13.8)
7.0 - 3:22.76 - (13.7)
7.5 - 3:36.92 - (14.1)
8.0 - 3:52.82 - (15.9)
15.65 14